Regional Weather Roundup
Issued by NWS

Home | Current Version | Previous Version | Graphics & Text | Print | Product List | Glossary Off
Versions: 1 2 3 4 5 6 7 8 9 10 11 12 13 14 15 16 17 18 19 20 21 22 23 24 25 26 27 28 29 30 31 32 33 34 35 36 37 38 39 40 41 42 43 44 45 46 47 48 49 50

000
ASUS45 KABQ 030701
RWRNM
WEATHER ROUNDUP FOR NEW MEXICO
NATIONAL WEATHER SERVICE ALBUQUERQUE NM
100 AM MDT WED SEP 03 2014

NOTE: "FAIR" MEANS FEW OR NO CLOUDS BELOW 12,000 FEET AGL WITH NO
       SIGNIFICANT WEATHER OR OBSTRUCTIONS TO VISION.

      THIS PRODUCT IS RELEASED AS TWO VERSIONS.  ONE VERSION NEAR
      THE TOP OF THE HOUR CONTAINING PRELIMINARY DATA FROM ALBUQUERQUE
      AND OTHER STATIONS.  A FINAL VERSION WITH ADDITIONAL DATA IS
      ISSUED ABOUT 10 MINUTES AFTER THE HOUR.

NMZ501-503-504-510>518-030800-
NORTHWEST PLATEAU/NORTHCENTRAL MOUNTAINS

CITY           SKY/WX    TMP DP  RH WIND       PRES   REMARKS
FARMINGTON     CLEAR     65  32  29 SE5       30.02F
LOS ALAMOS     CLEAR     69  31  24 SW7       30.19F
SANTA FE       CLEAR     64  39  39 NW3       30.12S
ANGEL FIRE     FAIR      43  36  75 CALM      30.31S

$$
NMZ402-403-502-505>509-030800-
WESTCENTRAL MOUNTAINS/SOUTHWEST MOUNTAINS

CITY           SKY/WX    TMP DP  RH WIND       PRES   REMARKS
GALLUP         CLEAR     55  21  26 CALM      30.15R
SILVER CITY    CLEAR     68  32  26 N10       30.09S

$$
NMZ407-409-411-412-030800-
SOUTHERN DESERTS

CITY           SKY/WX    TMP DP  RH WIND       PRES   REMARKS
LORDSBURG      FAIR      70  36  28 W3        29.98S
DEMING         CLEAR     69  35  28 SW5       29.97S
LAS CRUCES     CLEAR     74  31  20 NW7       29.99R
HOLLOMAN AFB   CLEAR     76  38  25 SE2       29.93S
ALAMOGORDO     CLEAR     75  36  23 E3        29.94F
T OR C         CLEAR     76  36  23 W9        29.99S

$$
NMZ519>523-030800-
CENTRAL VALLEYS/CENTRAL HIGHLANDS

CITY           SKY/WX    TMP DP  RH WIND       PRES   REMARKS
ALBUQUERQUE    PTCLDY    76  40  27 W7        30.04S
DOUBLE EAGLE   CLEAR     64  32  30 SW5       30.08S
CLINES CORNERS CLEAR     63  38  39 S12       30.17F
BELEN          FAIR      67  37  33 S7        30.02S
SOCORRO        FAIR      71  38  30 S6        29.99F

$$
NMZ524>526-539-540-030800-
SOUTHCENTRAL MOUNTAINS

CITY           SKY/WX    TMP DP  RH WIND       PRES   REMARKS
RUIDOSO        NOT AVBL

$$
NMZ527>531-030800-
NORTHEAST HIGHLANDS/NORTHEAST PLAINS

CITY           SKY/WX    TMP DP  RH WIND       PRES   REMARKS
LAS VEGAS      CLEAR     62  43  49 SW6       30.17F
RATON          CLEAR     61  51  70 N5        30.13F
CLAYTON        CLEAR     67  60  78 S10       30.03S

$$
NMZ532>537-030800-
EASTCENTRAL PLAINS

CITY           SKY/WX    TMP DP  RH WIND       PRES   REMARKS
TUCUMCARI      CLEAR     81  56  42 S18G31    29.96R
CANNON AFB     CLEAR     76  58  53 S15G24    30.02F
CLOVIS AIRPORT   N/A     75  57  53 S15       30.05R

$$
NMZ028-029-538-030800-
SOUTHEAST PLAINS

CITY           SKY/WX    TMP DP  RH WIND       PRES   REMARKS
ROSWELL        CLEAR     80  58  46 S14       29.97R
CARLSBAD       CLEAR     81  59  47 S13       29.94S
HOBBS          CLEAR     77  59  53 SE14      30.01S


$$


USA.gov is the U.S. government's official web portal to all federal, state and local government web resources and services.